sat.trackr.live / text

‹ back to catalog

STARLINK-34234

NORAD 64248 · 2025-119R

PAYLOAD ACTIVE UNKNOWN

§ Identity

Operator
Country
US
Launch date
2025-06-03
Launch site
AFETR
Launch vehicle
Mass (kg)
RCS (m²)

Purposes: comms

External: N2YO · Heavens-Above · Gunter

§ Orbital elements

Epoch: 2026-05-25T05:21:46.423872Z

Period
94.27 min
Inclination
43.0001°
Eccentricity
0.0000662
Mean motion
15.27591301 rev/d
Perigee alt
482.6 km
Apogee alt
483.5 km
Semi-major
6,861.2 km
B*
5.2613e-4
RAAN
234.8713°
Arg perigee
286.6803°
Mean anomaly
73.3976°
Rev number
5,587

§ Raw data

STARLINK-342341 64248U 25119R   26145.22345398  .00014249  00000+0  52613-3 0  99952 64248  43.0001 234.8713 0000662 286.6803  73.3976 15.27591301 55873

JSON: /api/v1/satellites/64248 · /tle

For live sub-satellite position, see the globe view (requires WebGL).

§ Visibility from observer

Set your observer location to see the next 7 days of passes ≥ 10°. The values pass through the URL so the page stays shareable.

No JS? Fill the form by hand. The geolocation button needs JavaScript.